DW4743 Weather Reports


time (UTC)temp
C
wind
direction
speed
KPH
gust
KPH
rain 1hr
cm
rain 24hr
cm
rain mn
cm
humidity
%
barometer
mb
20260508110310 12 136 16.1 22.5 0.03 1.45 0.97 100 1008.9
20260508105809 12 129 11.3 25.7 0.05 1.45 0.97 100 1009.0
20260508102809 11 125 25.7 37.0 0.05 1.45 0.97 100 1010.0
20260508102309 11 139 19.3 32.2 0.08 1.45 0.97 100 1010.1
20260508101809 11 159 11.3 25.7 0.05 1.45 0.94 100 1010.3
20260508100810 11 146 14.5 29.0 0.08 1.45 0.94 100 1010.2
20260508100309 11 152 19.3 29.0 0.08 1.45 0.94 100 1010.1
20260508095810 11 150 12.9 22.5 0.05 1.42 0.91 100 1010.1
20260508093810 11 155 9.7 14.5 0.08 1.40 0.89 100 1010.1
20260508092809 11 155 9.7 12.9 0.10 1.40 0.89 100 1010.2
20260508092313 11 158 8.0 14.5 0.10 1.37 0.89 100 1010.2
20260508091310 11 171 8.0 16.1 0.10 1.37 0.89 100 1010.1
20260508084310 11 179 8.0 14.5 0.10 1.32 0.81 100 1009.8
20260508083810 10 180 8.0 16.1 0.13 1.32 0.81 100 1009.8
20260508083309 10 180 11.3 16.1 0.13 1.30 0.79 100 1009.8
20260508082810 10 173 9.7 16.1 0.15 1.30 0.79 100 1009.7
20260508082310 10 161 8.0 14.5 0.15 1.27 0.79 100 1009.5
20260508080809 10 140 8.0 12.9 0.23 1.27 0.79 100 1009.3
20260508075310 10 176 4.8 14.5 0.23 1.24 0.74 100 1009.6
20260508073809 10 163 4.8 12.9 0.23 1.19 0.71 100 1009.7
20260508072809 10 178 6.4 12.9 0.23 1.14 0.64 100 1009.7
20260508072310 10 183 11.3 12.9 0.25 1.12 0.61 100 1009.7
20260508071310 10 183 11.3 12.9 0.25 1.07 0.56 100 1009.5
20260508070810 10 183 11.3 12.9 0.33 1.04 0.53 100 1009.3
20260508070309 10 183 11.3 12.9 0.51 1.04 0.53 100 1009.2
20260508065809 10 183 11.3 12.9 0.46 0.99 0.51 100 1009.1
20260508063309 10 183 11.3 12.9 0.41 0.91 0.43 100 1009.7
20260508062809 10 183 11.3 12.9 0.38 0.89 0.41 100 1009.6
20260508062310 10 183 11.3 12.9 0.33 0.86 0.36 100 1009.6
20260508061810 9 183 11.3 12.9 0.33 0.84 0.33 100 1009.7
20260508060310 8 198 12.9 19.3 0.03 0.53 0.05 100 1009.6
20260508055309 7 207 8.0 9.7 0.00 0.51 0.03 100 1009.1
20260508054810 7 217 4.8 4.8 0.00 0.51 0.03 100 1008.8
20260508053809 7 119 1.6 1.6 0.00 0.51 0.03 100 1008.3
20260508052810 7 353 1.6 4.8 0.00 0.51 0.03 100 1008.2
20260508051809 7 63 1.6 3.2 0.00 0.51 0.03 100 1008.3
20260508051309 7 26 1.6 4.8 0.00 0.51 0.03 100 1008.2
20260508050810 7 32 3.2 4.8 0.00 0.51 0.03 100 1008.2
20260508050309 7 89 3.2 4.8 0.00 0.51 0.03 100 1008.3
20260508045809 7 110 1.6 4.8 0.00 0.51 0.03 100 1008.2
20260508043309 7 303 1.6 3.2 0.00 0.51 0.03 100 1008.3
20260508042309 7 164 1.6 4.8 0.00 0.51 0.03 100 1008.4
20260508041309 7 266 4.8 4.8 0.00 0.51 0.03 100 1008.3
20260508040810 7 271 3.2 8.0 0.00 0.51 0.03 100 1008.4
20260508040309 7 290 4.8 8.0 0.00 0.51 0.03 100 1008.3
20260508035309 7 295 3.2 4.8 0.00 0.51 0.03 100 1008.3
20260508034811 7 309 0.0 3.2 0.00 0.51 0.03 100 1008.3
20260508033809 7 284 1.6 4.8 0.00 0.51 0.03 100 1008.3
20260508033310 7 246 3.2 4.8 0.00 0.51 0.03 100 1008.4
20260508032309 7 239 3.2 4.8 0.00 0.51 0.03 100 1008.4
20260508031809 7 189 1.6 4.8 0.00 0.51 0.03 100 1008.4
20260508031310 7 156 3.2 4.8 0.00 0.51 0.03 100 1008.4
20260508030809 7 136 1.6 3.2 0.00 0.51 0.03 100 1008.4
20260508030309 7 138 1.6 3.2 0.00 0.51 0.03 100 1008.4
20260508025809 7 257 1.6 3.2 0.00 0.51 0.03 100 1008.5
20260508024309 7 309 3.2 4.8 0.00 0.51 0.03 100 1008.6
20260508023809 7 311 1.6 4.8 0.00 0.51 0.03 100 1008.7
20260508023309 7 244 4.8 4.8 0.00 0.51 0.03 100 1008.6
20260508021809 7 269 1.6 3.2 0.00 0.51 0.03 100 1008.8
20260508015309 7 197 0.0 3.2 0.00 0.51 0.03 100 1009.1
20260508014809 7 265 1.6 4.8 0.00 0.51 0.03 100 1009.1
20260508013810 7 356 3.2 4.8 0.00 0.51 0.03 100 1009.3
20260508013309 7 52 1.6 4.8 0.00 0.51 0.03 100 1009.3
20260508012809 7 206 1.6 4.8 0.00 0.51 0.03 100 1009.3
20260508011809 7 213 1.6 3.2 0.00 0.51 0.03 100 1009.5
20260508011310 7 214 1.6 4.8 0.00 0.51 0.03 100 1009.6
20260508010809 7 91 3.2 4.8 0.00 0.51 0.03 100 1009.5
20260508004809 8 251 3.2 4.8 0.00 0.51 0.03 100 1009.8
20260508003810 8 350 1.6 3.2 0.00 0.51 0.03 100 1009.8
20260508003309 8 42 3.2 3.2 0.00 0.51 0.03 100 1009.8
20260508002309 8 203 0.0 3.2 0.00 0.51 0.03 100 1010.1
20260508001809 8 15 1.6 3.2 0.00 0.51 0.03 100 1010.2
20260508001309 8 17 1.6 3.2 0.00 0.51 0.03 100 1010.2
20260508000309 9 258 1.6 3.2 0.03 0.51 0.03 100 1010.3
20260507233809 9 147 8.0 8.0 0.03 0.51 0.03 100 1010.5
20260507233309 9 145 4.8 8.0 0.03 0.51 0.03 100 1010.6
20260507232809 8 145 4.8 8.0 0.03 0.51 0.03 100 1010.5
20260507231810 8 138 6.4 8.0 0.03 0.51 0.03 100 1010.5
20260507231309 8 141 4.8 8.0 0.03 0.51 0.03 100 1010.7
20260507230309 8 179 1.6 4.8 0.00 0.51 0.00 100 1010.5
20260507225310 7 196 1.6 4.8 0.00 0.51 0.00 100 1010.6
20260507224810 7 201 3.2 4.8 0.00 0.51 0.00 100 1010.6
20260507223810 7 218 1.6 4.8 0.00 0.51 0.00 100 1010.7
20260507223309 7 236 4.8 4.8 0.00 0.51 0.00 100 1010.7
20260507222809 7 236 4.8 4.8 0.00 0.51 0.00 100 1010.7
20260507222309 7 225 3.2 4.8 0.00 0.51 0.00 100 1010.7
20260507221809 7 238 3.2 4.8 0.00 0.51 0.00 100 1010.6
20260507221312 7 227 1.6 8.0 0.00 0.51 0.00 100 1010.6
20260507220309 7 176 3.2 4.8 0.00 0.51 0.00 100 1010.6
20260507215309 7 88 3.2 9.7 0.00 0.51 0.51 100 1010.7
20260507214809 7 113 6.4 9.7 0.00 0.51 0.51 100 1010.7
20260507214309 7 105 4.8 8.0 0.00 0.51 0.51 100 1010.8
20260507212809 8 79 3.2 4.8 0.00 0.51 0.51 100 1010.9
20260507212309 8 105 1.6 4.8 0.00 0.51 0.51 100 1010.9
20260507211809 8 194 3.2 4.8 0.00 0.51 0.51 100 1010.9
20260507204309 9 135 3.2 4.8 0.00 0.51 0.51 100 1010.6
20260507203309 9 208 3.2 4.8 0.00 0.51 0.51 100 1010.4
20260507201809 9 207 3.2 4.8 0.00 0.51 0.51 100 1010.0
20260507201309 10 226 3.2 4.8 0.00 0.51 0.51 100 1010.0
20260507200809 10 245 4.8 4.8 0.00 0.51 0.51 100 1010.1
20260507200309 10 274 3.2 4.8 0.00 0.51 0.51 100 1010.0
20260507195309 10 250 3.2 4.8 0.00 0.51 0.51 100 1010.1
20260507194309 10 272 3.2 4.8 0.00 0.51 0.51 100 1009.8
20260507191809 11 38 3.2 11.3 0.00 0.51 0.51 100 1009.5
20260507191309 11 64 4.8 11.3 0.00 0.51 0.51 100 1009.3
20260507190809 11 98 6.4 11.3 0.00 0.51 0.51 100 1009.3
20260507190308 12 80 3.2 8.0 0.00 0.51 0.51 100 1009.3
20260507184310 12 86 9.7 20.9 0.00 0.51 0.51 100 1009.4
20260507183809 12 81 8.0 20.9 0.00 0.51 0.51 100 1009.4
20260507181809 12 90 16.1 29.0 0.00 0.51 0.51 100 1009.6
20260507175309 13 84 11.3 20.9 0.00 0.51 0.51 100 1010.0
20260507174809 13 70 9.7 19.3 0.00 0.51 0.51 100 1010.1
20260507174310 13 52 9.7 19.3 0.00 0.51 0.51 100 1010.2
20260507173809 13 63 8.0 24.1 0.00 0.51 0.51 100 1010.1
20260507173309 13 78 11.3 24.1 0.00 0.51 0.51 100 1010.0
20260507172808 13 75 14.5 22.5 0.00 0.51 0.51 100 1010.0
20260507171809 14 64 8.0 19.3 0.00 0.51 0.51 100 1010.0
20260507170309 13 30 9.7 14.5 0.00 0.51 0.51 100 1009.8
20260507165808 13 46 6.4 11.3 0.00 0.51 0.51 100 1010.0
20260507164310 13 30 9.7 19.3 0.00 0.51 0.51 100 1009.9
20260507163309 13 9 9.7 24.1 0.05 0.51 0.51 100 1009.9
20260507162809 14 5 16.1 24.1 0.15 0.51 0.51 100 1009.8
20260507161808 15 12 11.3 19.3 0.25 0.51 0.51 100 1009.6
20260507161309 14 15 11.3 19.3 0.30 0.51 0.51 100 1009.6
20260507160809 14 16 12.9 19.3 0.33 0.51 0.51 100 1009.4
20260507155308 13 10 12.9 22.5 0.38 0.51 0.51 100 1009.4
20260507154809 13 352 16.1 24.1 0.38 0.51 0.51 100 1009.5
20260507153808 13 334 19.3 27.4 0.41 0.48 0.48 100 1009.6
20260507153309 13 322 19.3 29.0 0.43 0.43 0.43 100 1009.6
20260507150809 15 313 16.1 29.0 0.15 0.15 0.15 100 1009.2
20260507150309 16 292 16.1 29.0 0.15 0.15 0.15 100 1009.0
20260507145808 16 280 19.3 29.0 0.15 0.15 0.15 100 1009.0
20260507145309 16 272 11.3 25.7 0.13 0.13 0.13 100 1008.9
20260507144808 16 301 19.3 25.7 0.13 0.13 0.13 100 1008.8
20260507144308 17 336 11.3 20.9 0.13 0.13 0.13 100 1008.6
20260507143808 17 275 12.9 22.5 0.08 0.08 0.08 99 1008.6
20260507142809 17 277 16.1 24.1 0.00 0.00 0.00 93 1008.5
20260507134808 22 203 8.0 22.5 0.00 0.00 0.00 73 1008.0
20260507134308 21 256 14.5 22.5 0.00 0.00 0.00 71 1008.0
20260507133309 21 234 11.3 20.9 0.00 0.00 0.00 70 1008.2
20260507132808 21 135 12.9 20.9 0.00 0.00 0.00 69 1008.2
20260507132309 21 143 14.5 19.3 0.00 0.00 0.00 72 1008.2
20260507131809 21 140 11.3 19.3 0.00 0.00 0.00 68 1008.2
20260507131309 21 220 4.8 16.1 0.00 0.00 0.00 67 1008.4
20260507125309 21 207 11.3 19.3 0.00 0.00 0.00 77 1008.6
20260507123308 20 241 9.7 16.1 0.00 0.00 0.00 77 1008.9
20260507122308 20 205 8.0 20.9 0.00 0.00 0.00 76 1009.1
20260507121809 20 229 9.7 20.9 0.00 0.00 0.00 80 1009.3
20260507121309 20 140 4.8 25.7 0.00 0.00 0.00 79 1009.3
20260507120808 20 142 14.5 25.7 0.00 0.00 0.00 81 1009.3
20260507120308 20 192 6.4 14.5 0.00 0.00 0.00 82 1009.4
20260507115808 20 350 4.8 19.3 0.00 0.00 0.00 83 1009.5
20260507114308 19 274 6.4 16.1 0.00 0.00 0.00 85 1009.7
20260507113809 18 214 3.2 14.5 0.00 0.00 0.00 84 1009.8
20260507113309 18 221 8.0 16.1 0.00 0.00 0.00 86 1009.9
20260507112808 18 298 9.7 19.3 0.00 0.00 0.00 86 1009.9